Погода в Киме

Россия / Республика Марий Эл     56°43′33″N   48°05′57″E
темп.,
°C
ветер,
м/с
пор.,
м/с
влажн.,
%
обл.,
%
осадки,
мм/ч
давл.,
гПа
погр.,
м
18 апреля, вс
вс1800:00+3св23844 0.0 102540
03:00+2св35850 0.0 102473
06:00+2св26855 0.0 1024118
09:00+8св466525 0.0 1024391
12:00+9св6764100 0.0 1024995
15:00+8св7970100 0.0 1026923
18:00+6св61068100 0.0 1026907
21:00+3всв61364100 0.0 1027619
19 апреля, пн
пн1900:00+1всв5127259 0.0 1029486
03:000всв6137391 0.0 1029516
06:000всв6136498 0.0 1030564
09:00+4в7104511 0.0 10311071
12:00+6в793441 0.0 10311572
15:00+7в793160 0.0 10311698
18:00+5в6104010 0.0 1031695
21:00+1в412521 0.0 1032373
20 апреля, вт
вт2000:000в412590 0.0 1033332
03:000в412560 0.0 1033337
06:00+1в512500 0.0 1033427
09:00+6вюв57380 0.0 1033965
12:00+9юв67290 0.0 10321519
15:00+9вюв67290 0.0 10311469
18:00+7вюв49410 0.0 1030431
21:00+3вюв414514 0.0 1029373
21 апреля, ср
ср2100:00+2вюв5145578 0.0 1028376
03:00+2вюв61656100 0.0 1027513
06:00+3юв71749100 0.0 1025781
09:00+6юв81640100 0.0 1024997
12:00+7юв81641100 0.1 10221177
15:00+3юв91878100 1.3 1022985
18:00+3ююв81787100 1.8 1021988
21:00+2ююв81797100 4.4 1021846
22 апреля, чт
чт2200:00+2ююв71497100 0.6 1020754
03:00+3ю61197100 1.1 1021690
06:00+3ю51096100 0.3 1022468
09:00+5ю5992100 0.3 1023456
12:00+8ю5774100 0.0 1023698
15:00+10ю586888 0.2 10241197
18:00+9ююв497566 0.1 1025369
21:00+5ююв51290100 0.1 1026380